This is the latest recevied weather packets stored in our database for station/object G0TQM-11. If no packets are shown the sender has not sent any weather packets the latest 10 day(s).
| Time | Temp. | Humidity | Pressure | Rain* | Wind** | Luminosity | Snow |
|---|---|---|---|---|---|---|---|
| 1777962304 | 8.33° C | 59% | 1013 hPa | - | - | - | - |
| 1777961104 | 7.78° C | 56% | 1012.9 hPa | - | - | - | - |
| 1777959904 | 7.22° C | 57% | 1012.8 hPa | - | - | - | - |
| 1777958704 | 6.67° C | 59% | 1012.9 hPa | - | - | - | - |
| 1777957503 | 6.11° C | 58% | 1012.7 hPa | - | - | - | - |
| 1777956303 | 5.56° C | 60% | 1012.7 hPa | - | - | - | - |
| 1777955103 | 5° C | 60% | 1012.7 hPa | - | - | - | - |
| 1777953903 | 5° C | 61% | 1012.6 hPa | - | - | - | - |
| 1777952703 | 5° C | 61% | 1012.6 hPa | - | - | - | - |
| 1777951503 | 5° C | 61% | 1012.7 hPa | - | - | - | - |
| 1777950303 | 5.56° C | 61% | 1012.7 hPa | - | - | - | - |
| 1777949102 | 5.56° C | 61% | 1012.7 hPa | - | - | - | - |
| 1777947902 | 5.56° C | 60% | 1012.8 hPa | - | - | - | - |
| 1777946702 | 5.56° C | 61% | 1012.9 hPa | - | - | - | - |
| 1777945502 | 6.11° C | 61% | 1013 hPa | - | - | - | - |
| 1777944302 | 6.11° C | 61% | 1013.2 hPa | - | - | - | - |
| 1777943102 | 6.67° C | 60% | 1013.2 hPa | - | - | - | - |
| 1777941902 | 6.67° C | 61% | 1013.2 hPa | - | - | - | - |
| 1777940701 | 6.67° C | 60% | 1013.5 hPa | - | - | - | - |
| 1777939501 | 6.67° C | 60% | 1013.4 hPa | - | - | - | - |
| 1777938301 | 6.67° C | 60% | 1013.4 hPa | - | - | - | - |
| 1777937101 | 7.22° C | 60% | 1013.6 hPa | - | - | - | - |
| 1777935901 | 7.22° C | 61% | 1013.6 hPa | - | - | - | - |
| 1777934701 | 7.22° C | 61% | 1013.6 hPa | - | - | - | - |
| 1777933519 | 7.22° C | 62% | 1013.8 hPa | - | - | - | - |
* Rain since midnight (hover to see other rain measurements)
** Current wind speed in m/s (hover to see current wind gust speed)